Hauptseite
METAR-TAF:

METAR-TAF

Flughäfen :

Bohrplattform

Awg-1, Niederlande

Breite: 53-29-30N, Länge: 5-56-30E, Höhe: 33 m

Beobachtung

Neuester Wetterbericht von vor 26 Minuten, um 23:25 UTC
Wind 21 kt aus Süd
Temperatur -1°C
Luftfeuchtigkeit 93%
Luftdruck 998 hPa
Durchbrochene Bewölkung in der Höhe von 300 ft
Geschlossene Wolkendecke in der Höhe von 400 ft

METAR: EHMA 222325Z AUTO 19021KT //// // BKN003 OVC004 M01/M02 Q0998 RE// W///H///

Zeit: 00:51 (23:51 UTC)


TAF: fehlend

Wetterbeobachtungen und Prognosen von mehr als 4000 Flughäfen (METAR und TAF Bericht).

Die verfügbaren Stationen werden durch gelbe und rote Markierungen auf der Karte dargestellt.

Führen Sie die Maus auf sie, um den Namen der Station zu sehen.

Darauf klicken, um die Beobachtung von Wetterbeobachtungen und Prognosen zu sehen.

Um die Karte zu ändern : klicken Sie auf den grünen Tasten mit einem schwarzen Kreuz Zum Vergrößern, auf den grünen Button mit einem Gedankenstrich zu verkleinern, oder auf die grünen Pfeile für benachbarte Karten.


METAR-TAF: